Time,TemperatureF,DewpointF,PressureIn,WindDirection,WindDirectionDegrees,WindSpeedMPH,WindSpeedGustMPH,Humidity,HourlyPrecipIn,Conditions,Clouds,dailyrainin,SoftwareType,DateUTC
2013-04-05 00:02:00,32.0,24.0,30.18,North,-999,0.0,-999.0,72,-99.99,,,-99.99,,2013-04-05 05:02:00,
2013-04-05 00:12:00,32.0,24.0,30.18,North,-999,0.0,-999.0,72,-99.99,,,-99.99,,2013-04-05 05:12:00,
2013-04-05 00:22:00,32.0,24.0,30.19,North,-999,0.0,-999.0,72,-99.99,,,-99.99,,2013-04-05 05:22:00,
2013-04-05 00:32:00,31.0,23.0,30.18,North,-999,0.0,-999.0,73,-99.99,,,-99.99,,2013-04-05 05:32:00,
2013-04-05 00:42:00,31.0,23.0,30.18,North,-999,0.0,-999.0,73,-99.99,,,-99.99,,2013-04-05 05:42:00,
2013-04-05 00:52:00,31.0,24.0,30.19,North,-999,0.0,-999.0,74,-99.99,,,-99.99,,2013-04-05 05:52:00,
2013-04-05 01:02:00,31.0,24.0,30.19,North,-999,0.0,-999.0,74,-99.99,,,-99.99,,2013-04-05 06:02:00,
2013-04-05 01:12:00,31.0,24.0,30.19,North,-999,0.0,-999.0,74,-99.99,,,-99.99,,2013-04-05 06:12:00,
2013-04-05 01:22:00,30.0,23.0,30.20,North,-999,0.0,-999.0,75,-99.99,,,-99.99,,2013-04-05 06:22:00,
2013-04-05 01:32:00,30.0,23.0,30.20,North,-999,0.0,-999.0,75,-99.99,,,-99.99,,2013-04-05 06:32:00,
2013-04-05 01:42:00,30.0,23.0,30.20,North,-999,0.0,-999.0,75,-99.99,,,-99.99,,2013-04-05 06:42:00,
2013-04-05 01:52:00,30.0,23.0,30.20,North,-999,0.0,-999.0,76,-99.99,,,-99.99,,2013-04-05 06:52:00,
2013-04-05 02:02:00,29.0,22.0,30.20,North,-999,0.0,-999.0,76,-99.99,,,-99.99,,2013-04-05 07:02:00,
2013-04-05 02:12:00,29.0,22.0,30.20,North,-999,0.0,-999.0,76,-99.99,,,-99.99,,2013-04-05 07:12:00,
2013-04-05 02:22:00,29.0,22.0,30.21,North,-999,0.0,-999.0,76,-99.99,,,-99.99,,2013-04-05 07:22:00,
2013-04-05 02:32:00,29.0,22.0,30.21,North,-999,0.0,-999.0,76,-99.99,,,-99.99,,2013-04-05 07:32:00,
2013-04-05 02:42:00,29.0,22.0,30.21,North,-999,0.0,-999.0,76,-99.99,,,-99.99,,2013-04-05 07:42:00,
2013-04-05 02:52:00,29.0,22.0,30.21,North,-999,0.0,-999.0,76,-99.99,,,-99.99,,2013-04-05 07:52:00,
2013-04-05 03:02:00,29.0,23.0,30.22,North,-999,0.0,-999.0,77,-99.99,,,-99.99,,2013-04-05 08:02:00,
2013-04-05 03:13:00,29.0,23.0,30.22,North,-999,0.0,-999.0,77,-99.99,,,-99.99,,2013-04-05 08:13:00,
2013-04-05 03:22:00,28.0,22.0,30.21,North,-999,0.0,-999.0,77,-99.99,,,-99.99,,2013-04-05 08:22:00,
2013-04-05 03:32:00,28.0,22.0,30.21,North,-999,0.0,-999.0,77,-99.99,,,-99.99,,2013-04-05 08:32:00,
2013-04-05 03:43:00,28.0,22.0,30.21,North,-999,0.0,-999.0,77,-99.99,,,-99.99,,2013-04-05 08:43:00,
2013-04-05 03:52:00,27.0,21.0,30.22,North,-999,0.0,-999.0,78,-99.99,,,-99.99,,2013-04-05 08:52:00,
2013-04-05 04:02:00,27.0,21.0,30.22,North,-999,0.0,-999.0,78,-99.99,,,-99.99,,2013-04-05 09:02:00,
2013-04-05 04:12:00,27.0,21.0,30.22,North,-999,0.0,-999.0,78,-99.99,,,-99.99,,2013-04-05 09:12:00,
2013-04-05 04:22:00,27.0,21.0,30.22,North,-999,0.0,-999.0,78,-99.99,,,-99.99,,2013-04-05 09:22:00,
2013-04-05 04:33:00,27.0,21.0,30.23,North,-999,0.0,-999.0,78,-99.99,,,-99.99,,2013-04-05 09:33:00,
2013-04-05 04:42:00,27.0,21.0,30.23,North,-999,0.0,-999.0,78,-99.99,,,-99.99,,2013-04-05 09:42:00,
2013-04-05 04:52:00,27.0,21.0,30.23,North,-999,0.0,-999.0,77,-99.99,,,-99.99,,2013-04-05 09:52:00,
2013-04-05 05:03:00,27.0,21.0,30.23,North,-999,0.0,-999.0,77,-99.99,,,-99.99,,2013-04-05 10:03:00,
2013-04-05 05:13:00,27.0,21.0,30.23,North,-999,0.0,-999.0,77,-99.99,,,-99.99,,2013-04-05 10:13:00,
2013-04-05 05:23:00,27.0,21.0,30.23,North,-999,0.0,-999.0,77,-99.99,,,-99.99,,2013-04-05 10:23:00,
2013-04-05 05:32:00,26.0,20.0,30.24,North,-999,0.0,-999.0,77,-99.99,,,-99.99,,2013-04-05 10:32:00,
2013-04-05 05:42:00,26.0,20.0,30.24,North,-999,0.0,-999.0,77,-99.99,,,-99.99,,2013-04-05 10:42:00,
2013-04-05 05:52:00,26.0,20.0,30.24,North,-999,0.0,-999.0,77,-99.99,,,-99.99,,2013-04-05 10:52:00,
2013-04-05 06:02:00,26.0,20.0,30.24,North,-999,0.0,-999.0,77,-99.99,,,-99.99,,2013-04-05 11:02:00,
2013-04-05 06:13:00,26.0,20.0,30.24,North,-999,0.0,-999.0,77,-99.99,,,-99.99,,2013-04-05 11:13:00,
2013-04-05 06:22:00,26.0,20.0,30.24,North,-999,0.0,-999.0,77,-99.99,,,-99.99,,2013-04-05 11:22:00,
2013-04-05 06:33:00,25.0,19.0,30.24,North,-999,0.0,-999.0,77,-99.99,,,-99.99,,2013-04-05 11:33:00,
2013-04-05 06:42:00,25.0,19.0,30.24,North,-999,0.0,-999.0,77,-99.99,,,-99.99,,2013-04-05 11:42:00,
2013-04-05 06:52:00,25.0,19.0,30.24,North,-999,0.0,-999.0,77,-99.99,,,-99.99,,2013-04-05 11:52:00,
2013-04-05 07:02:00,25.0,19.0,30.24,North,-999,0.0,-999.0,77,-99.99,,,-99.99,,2013-04-05 12:02:00,
2013-04-05 07:12:00,25.0,19.0,30.24,North,-999,0.0,-999.0,77,-99.99,,,-99.99,,2013-04-05 12:12:00,
2013-04-05 07:22:00,25.0,19.0,30.24,North,-999,0.0,-999.0,77,-99.99,,,-99.99,,2013-04-05 12:22:00,
2013-04-05 07:32:00,25.0,19.0,30.24,North,-999,0.0,-999.0,77,-99.99,,,-99.99,,2013-04-05 12:32:00,
2013-04-05 07:42:00,25.0,19.0,30.24,North,-999,0.0,-999.0,77,-99.99,,,-99.99,,2013-04-05 12:42:00,
2013-04-05 07:52:00,25.0,19.0,30.24,North,-999,0.0,-999.0,76,-99.99,,,-99.99,,2013-04-05 12:52:00,
2013-04-05 08:02:00,25.0,18.0,30.24,North,-999,0.0,-999.0,75,-99.99,,,-99.99,,2013-04-05 13:02:00,
2013-04-05 08:12:00,25.0,18.0,30.24,North,-999,0.0,-999.0,75,-99.99,,,-99.99,,2013-04-05 13:12:00,
2013-04-05 08:22:00,26.0,19.0,30.25,North,-999,0.0,-999.0,74,-99.99,,,-99.99,,2013-04-05 13:22:00,
2013-04-05 08:32:00,26.0,19.0,30.25,North,-999,0.0,-999.0,74,-99.99,,,-99.99,,2013-04-05 13:32:00,
2013-04-05 08:42:00,26.0,19.0,30.25,North,-999,0.0,-999.0,74,-99.99,,,-99.99,,2013-04-05 13:42:00,
2013-04-05 08:52:00,28.0,20.0,30.24,North,-999,0.0,-999.0,70,-99.99,,,-99.99,,2013-04-05 13:52:00,
2013-04-05 09:03:00,29.0,19.0,30.24,North,-999,0.0,-999.0,67,-99.99,,,-99.99,,2013-04-05 14:03:00,
2013-04-05 09:12:00,29.0,19.0,30.24,North,-999,0.0,-999.0,67,-99.99,,,-99.99,,2013-04-05 14:12:00,
2013-04-05 09:22:00,30.0,19.0,30.23,North,-999,0.0,-999.0,64,-99.99,,,-99.99,,2013-04-05 14:22:00,
2013-04-05 09:36:00,31.0,20.0,30.23,North,-999,0.0,-999.0,63,-99.99,,,-99.99,,2013-04-05 14:36:00,
2013-04-05 09:43:00,31.0,20.0,30.23,North,-999,0.0,-999.0,63,-99.99,,,-99.99,,2013-04-05 14:43:00,
2013-04-05 09:52:00,31.0,20.0,30.23,North,-999,0.0,-999.0,62,-99.99,,,-99.99,,2013-04-05 14:52:00,
2013-04-05 10:02:00,33.0,20.0,30.22,North,-999,0.0,-999.0,59,-99.99,,,-99.99,,2013-04-05 15:02:00,
2013-04-05 10:12:00,33.0,20.0,30.22,North,-999,0.0,-999.0,59,-99.99,,,-99.99,,2013-04-05 15:12:00,
2013-04-05 10:23:00,35.0,20.0,30.22,North,-999,0.0,-999.0,55,-99.99,,,-99.99,,2013-04-05 15:23:00,
2013-04-05 10:33:00,36.0,20.0,30.22,North,-999,0.0,-999.0,52,-99.99,,,-99.99,,2013-04-05 15:33:00,
2013-04-05 10:42:00,36.0,20.0,30.22,North,-999,0.0,-999.0,52,-99.99,,,-99.99,,2013-04-05 15:42:00,
2013-04-05 10:53:00,38.0,20.0,30.22,North,-999,0.0,-999.0,48,-99.99,,,-99.99,,2013-04-05 15:53:00,
2013-04-05 11:02:00,39.0,20.0,30.23,North,-999,0.0,-999.0,47,-99.99,,,-99.99,,2013-04-05 16:02:00,
2013-04-05 11:13:00,39.0,20.0,30.23,North,-999,0.0,-999.0,47,-99.99,,,-99.99,,2013-04-05 16:13:00,
2013-04-05 11:23:00,39.0,20.0,30.23,North,-999,0.0,-999.0,47,-99.99,,,-99.99,,2013-04-05 16:23:00,
2013-04-05 11:33:00,39.0,21.0,30.23,North,-999,0.0,-999.0,48,-99.99,,,-99.99,,2013-04-05 16:33:00,
2013-04-05 11:42:00,39.0,21.0,30.23,North,-999,0.0,-999.0,48,-99.99,,,-99.99,,2013-04-05 16:42:00,
2013-04-05 11:52:00,40.0,21.0,30.22,North,-999,0.0,-999.0,46,-99.99,,,-99.99,,2013-04-05 16:52:00,
2013-04-05 12:03:00,40.0,19.0,30.22,North,-999,0.0,-999.0,43,-99.99,,,-99.99,,2013-04-05 17:03:00,
2013-04-05 12:13:00,40.0,19.0,30.22,North,-999,0.0,-999.0,43,-99.99,,,-99.99,,2013-04-05 17:13:00,
2013-04-05 12:23:00,40.0,21.0,30.21,North,-999,0.0,-999.0,46,-99.99,,,-99.99,,2013-04-05 17:23:00,
2013-04-05 12:32:00,41.0,20.0,30.19,North,-999,0.0,-999.0,42,-99.99,,,-99.99,,2013-04-05 17:32:00,
2013-04-05 12:45:00,41.0,20.0,30.19,North,-999,0.0,-999.0,42,-99.99,,,-99.99,,2013-04-05 17:45:00,
2013-04-05 12:52:00,42.0,21.0,30.19,North,-999,0.0,-999.0,42,-99.99,,,-99.99,,2013-04-05 17:52:00,
2013-04-05 13:02:00,42.0,21.0,30.17,North,-999,0.0,-999.0,42,-99.99,,,-99.99,,2013-04-05 18:02:00,
2013-04-05 13:12:00,42.0,21.0,30.17,North,-999,0.0,-999.0,42,-99.99,,,-99.99,,2013-04-05 18:12:00,
2013-04-05 13:22:00,41.0,21.0,30.16,North,-999,0.0,-999.0,44,-99.99,,,-99.99,,2013-04-05 18:22:00,
2013-04-05 13:33:00,41.0,21.0,30.17,North,-999,0.0,-999.0,44,-99.99,,,-99.99,,2013-04-05 18:33:00,
2013-04-05 13:42:00,41.0,21.0,30.17,North,-999,0.0,-999.0,44,-99.99,,,-99.99,,2013-04-05 18:42:00,
2013-04-05 13:51:00,40.0,21.0,30.17,North,-999,0.0,-999.0,46,-99.99,,,-99.99,,2013-04-05 18:51:00,
2013-04-05 13:52:00,41.0,22.0,30.18,North,-999,0.0,-999.0,46,-99.99,,,-99.99,,2013-04-05 18:52:00,
2013-04-05 14:02:00,41.0,22.0,30.17,North,-999,0.0,-999.0,46,-99.99,,,-99.99,,2013-04-05 19:02:00,
2013-04-05 14:13:00,41.0,22.0,30.17,North,-999,0.0,-999.0,46,-99.99,,,-99.99,,2013-04-05 19:13:00,
2013-04-05 14:22:00,40.0,21.0,30.17,North,-999,0.0,-999.0,46,-99.99,,,-99.99,,2013-04-05 19:22:00,
2013-04-05 14:33:00,40.0,21.0,30.17,North,-999,0.0,-999.0,46,-99.99,,,-99.99,,2013-04-05 19:33:00,
2013-04-05 14:42:00,40.0,21.0,30.17,North,-999,0.0,-999.0,46,-99.99,,,-99.99,,2013-04-05 19:42:00,
2013-04-05 15:22:00,36.0,29.0,30.16,North,-999,0.0,-999.0,77,-99.99,,,-99.99,,2013-04-05 20:22:00,
2013-04-05 15:33:00,36.0,29.0,30.16,North,-999,0.0,-999.0,77,-99.99,,,-99.99,,2013-04-05 20:33:00,
2013-04-05 15:42:00,36.0,29.0,30.16,North,-999,0.0,-999.0,77,-99.99,,,-99.99,,2013-04-05 20:42:00,
2013-04-05 15:52:00,34.0,30.0,30.15,North,-999,0.0,-999.0,84,-99.99,,,-99.99,,2013-04-05 20:52:00,
2013-04-05 16:02:00,34.0,30.0,30.14,North,-999,0.0,-999.0,86,-99.99,,,-99.99,,2013-04-05 21:02:00,
2013-04-05 16:12:00,34.0,30.0,30.14,North,-999,0.0,-999.0,86,-99.99,,,-99.99,,2013-04-05 21:12:00,
2013-04-05 16:23:00,34.0,31.0,30.12,North,-999,0.0,-999.0,87,-99.99,,,-99.99,,2013-04-05 21:23:00,
2013-04-05 16:33:00,33.0,30.0,30.11,North,-999,0.0,-999.0,88,-99.99,,,-99.99,,2013-04-05 21:33:00,
2013-04-05 16:43:00,33.0,30.0,30.11,North,-999,0.0,-999.0,88,-99.99,,,-99.99,,2013-04-05 21:43:00,
2013-04-05 16:53:00,33.0,30.0,30.09,North,-999,0.0,-999.0,89,-99.99,,,-99.99,,2013-04-05 21:53:00,
2013-04-05 17:03:00,34.0,31.0,30.09,North,-999,0.0,-999.0,90,-99.99,,,-99.99,,2013-04-05 22:03:00,
2013-04-05 17:13:00,34.0,31.0,30.09,North,-999,0.0,-999.0,90,-99.99,,,-99.99,,2013-04-05 22:13:00,
2013-04-05 17:23:00,34.0,31.0,30.09,North,-999,0.0,-999.0,90,-99.99,,,-99.99,,2013-04-05 22:23:00,
2013-04-05 17:33:00,34.0,31.0,30.08,North,-999,0.0,-999.0,90,-99.99,,,-99.99,,2013-04-05 22:33:00,
2013-04-05 17:43:00,34.0,31.0,30.08,North,-999,0.0,-999.0,90,-99.99,,,-99.99,,2013-04-05 22:43:00,
2013-04-05 17:52:00,34.0,31.0,30.07,North,-999,0.0,-999.0,90,-99.99,,,-99.99,,2013-04-05 22:52:00,
2013-04-05 18:02:00,34.0,31.0,30.05,North,-999,0.0,-999.0,90,-99.99,,,-99.99,,2013-04-05 23:02:00,
2013-04-05 18:12:00,34.0,31.0,30.05,North,-999,0.0,-999.0,90,-99.99,,,-99.99,,2013-04-05 23:12:00,
2013-04-05 18:22:00,34.0,31.0,30.05,North,-999,0.0,-999.0,90,-99.99,,,-99.99,,2013-04-05 23:22:00,
2013-04-05 18:32:00,34.0,31.0,30.05,North,-999,0.0,-999.0,90,-99.99,,,-99.99,,2013-04-05 23:32:00,
2013-04-05 18:43:00,34.0,31.0,30.05,North,-999,0.0,-999.0,90,-99.99,,,-99.99,,2013-04-05 23:43:00,
2013-04-05 18:53:00,34.0,31.0,30.04,North,-999,0.0,-999.0,90,-99.99,,,-99.99,,2013-04-05 23:53:00,
2013-04-05 19:02:00,34.0,31.0,30.03,North,-999,0.0,-999.0,89,-99.99,,,-99.99,,2013-04-06 00:02:00,
2013-04-05 19:13:00,34.0,31.0,30.03,North,-999,0.0,-999.0,89,-99.99,,,-99.99,,2013-04-06 00:13:00,
2013-04-05 19:22:00,34.0,31.0,30.00,North,-999,0.0,-999.0,89,-99.99,,,-99.99,,2013-04-06 00:22:00,
2013-04-05 19:33:00,34.0,31.0,30.01,North,-999,0.0,-999.0,89,-99.99,,,-99.99,,2013-04-06 00:33:00,
2013-04-05 19:42:00,34.0,31.0,30.01,North,-999,0.0,-999.0,89,-99.99,,,-99.99,,2013-04-06 00:42:00,
2013-04-05 19:52:00,34.0,31.0,30.02,North,-999,0.0,-999.0,88,-99.99,,,-99.99,,2013-04-06 00:52:00,
2013-04-05 20:02:00,34.0,31.0,30.01,North,-999,0.0,-999.0,88,-99.99,,,-99.99,,2013-04-06 01:02:00,
2013-04-05 20:13:00,34.0,31.0,30.02,North,-999,0.0,-999.0,88,-99.99,,,-99.99,,2013-04-06 01:13:00,
2013-04-05 20:22:00,34.0,31.0,30.02,North,-999,0.0,-999.0,88,-99.99,,,-99.99,,2013-04-06 01:22:00,
2013-04-05 20:32:00,34.0,31.0,30.01,North,-999,0.0,-999.0,88,-99.99,,,-99.99,,2013-04-06 01:32:00,
2013-04-05 20:43:00,34.0,31.0,30.01,North,-999,0.0,-999.0,88,-99.99,,,-99.99,,2013-04-06 01:43:00,
2013-04-05 20:52:00,34.0,31.0,30.01,North,-999,0.0,-999.0,88,-99.99,,,-99.99,,2013-04-06 01:52:00,
2013-04-05 21:02:00,34.0,31.0,30.01,North,-999,0.0,-999.0,88,-99.99,,,-99.99,,2013-04-06 02:02:00,
2013-04-05 21:12:00,34.0,31.0,30.01,North,-999,0.0,-999.0,88,-99.99,,,-99.99,,2013-04-06 02:12:00,
2013-04-05 21:22:00,34.0,31.0,30.00,North,-999,0.0,-999.0,88,-99.99,,,-99.99,,2013-04-06 02:22:00,
2013-04-05 21:32:00,34.0,31.0,30.00,North,-999,0.0,-999.0,88,-99.99,,,-99.99,,2013-04-06 02:32:00,
2013-04-05 21:42:00,34.0,31.0,30.00,North,-999,0.0,-999.0,88,-99.99,,,-99.99,,2013-04-06 02:42:00,
2013-04-05 21:52:00,34.0,31.0,29.99,North,-999,0.0,-999.0,88,-99.99,,,-99.99,,2013-04-06 02:52:00,
2013-04-05 22:02:00,34.0,31.0,29.98,North,-999,0.0,-999.0,88,-99.99,,,-99.99,,2013-04-06 03:02:00,
2013-04-05 22:12:00,34.0,31.0,29.98,North,-999,0.0,-999.0,88,-99.99,,,-99.99,,2013-04-06 03:12:00,
2013-04-05 22:22:00,35.0,32.0,29.97,North,-999,0.0,-999.0,87,-99.99,,,-99.99,,2013-04-06 03:22:00,
2013-04-05 22:33:00,35.0,32.0,29.96,North,-999,0.0,-999.0,87,-99.99,,,-99.99,,2013-04-06 03:33:00,
2013-04-05 22:43:00,35.0,32.0,29.96,North,-999,0.0,-999.0,87,-99.99,,,-99.99,,2013-04-06 03:43:00,
2013-04-05 22:53:00,35.0,32.0,29.96,North,-999,0.0,-999.0,87,-99.99,,,-99.99,,2013-04-06 03:53:00,
2013-04-05 23:03:00,35.0,32.0,29.96,North,-999,0.0,-999.0,87,-99.99,,,-99.99,,2013-04-06 04:03:00,
2013-04-05 23:23:00,35.0,31.0,29.93,North,-999,0.0,-999.0,86,-99.99,,,-99.99,,2013-04-06 04:23:00,
2013-04-05 23:33:00,35.0,31.0,29.92,North,-999,0.0,-999.0,85,-99.99,,,-99.99,,2013-04-06 04:33:00,
2013-04-05 23:42:00,35.0,31.0,29.92,North,-999,0.0,-999.0,85,-99.99,,,-99.99,,2013-04-06 04:42:00,
2013-04-05 23:52:00,35.0,31.0,29.91,North,-999,0.0,-999.0,85,-99.99,,,-99.99,,2013-04-06 04:52:00,